Theta_e
331 330 329 329 330 330 331 330 330 328 324 324 322 324 326 325 326 325 323 323 323 322 321 321 321 322 321 321 321 322 322 322 323 323 322 320 320 321 320 318 316 315 316 319 319 319 316 316 317 318 319 318 316 316 315 315 316 317 317 316 315 318 317 315 311 308 310 313 312 309 312 313 310 312 312 314 314 312 311 314 314 313 313 311 307
328 329 329 330 331 329 330 331 331 329 326 324 323 325 325 324 326 325 324 323 323 320 319 321 322 321 321 321 321 321 322 323 323 323 320 321 321 321 320 318 318 318 318 316 317 317 319 317 316 318 318 317 320 315 314 314 314 313 313 315 314 315 317 313 310 309 308 312 311 312 312 314 310 312 314 314 314 314 311 312 312 312 311 313 309
327 329 329 330 330 329 330 329 330 328 328 325 323 326 324 322 322 323 325 322 322 321 320 321 321 321 322 322 321 321 322 322 325 324 322 322 321 322 321 320 319 319 318 317 316 317 317 317 316 317 319 318 317 316 317 317 316 314 316 316 316 317 316 317 315 313 312 311 314 311 312 314 314 311 312 313 313 312 311 312 312 312 313 313 313
327 327 328 329 330 330 331 332 331 330 330 326 325 327 325 323 323 324 325 324 321 322 322 321 321 321 321 322 322 322 322 324 324 323 323 322 321 321 322 322 321 320 319 317 316 317 319 318 317 318 318 317 317 316 317 318 318 317 318 319 319 317 319 319 318 317 315 311 313 310 312 313 312 312 312 312 312 312 312 312 313 313 313 313 313
326 326 327 327 327 328 329 330 330 330 329 328 325 326 325 326 324 324 325 324 324 324 323 322 322 322 323 322 322 322 323 323 324 324 325 325 324 323 322 322 323 322 321 321 321 319 319 319 319 318 318 318 316 316 317 318 317 317 316 316 316 317 318 317 318 317 315 313 313 314 315 314 313 314 313 312 313 313 313 313 313 312 313 314 313
328 328 327 326 327 328 328 328 330 329 329 328 328 324 324 326 325 324 324 322 324 325 323 324 323 323 323 322 323 323 323 324 324 324 324 325 326 325 325 325 324 323 323 323 320 322 322 320 321 320 318 319 318 318 318 318 316 317 315 315 314 316 317 317 317 317 315 314 314 313 315 313 314 314 315 313 312 311 311 313 313 313 313 313 313
328 327 327 327 327 327 328 328 329 330 328 328 329 329 324 323 324 323 325 324 324 324 324 323 324 323 323 323 324 324 324 325 326 328 328 325 326 326 326 325 325 325 325 324 324 323 323 323 323 322 321 320 320 319 319 318 317 317 317 316 315 316 315 316 316 316 315 315 315 314 313 315 314 311 312 313 312 311 311 311 311 312 313 312 311
327 327 326 327 327 327 328 329 329 328 327 327 327 328 328 324 323 323 323 323 324 323 323 323 324 324 324 324 325 325 325 325 326 327 328 328 327 325 325 325 324 324 325 324 326 325 325 325 324 324 323 322 321 321 320 318 318 316 318 316 316 314 314 314 315 314 314 315 313 312 313 312 313 314 313 313 311 311 312 311 309 309 311 312 312
326 326 326 326 326 327 328 328 328 328 326 326 326 326 326 328 327 325 325 324 325 324 323 323 323 323 324 326 326 326 326 326 326 326 326 324 327 327 327 325 325 324 325 324 325 326 326 326 325 326 328 321 312 314 315 316 320 318 319 317 316 315 314 314 314 314 314 314 313 314 312 311 311 312 311 311 310 309 311 312 310 310 310 310 311
326 326 326 326 328 327 327 328 328 327 327 326 326 327 327 327 327 327 328 328 325 324 322 323 323 324 324 326 325 326 327 327 316 304 307 326 327 326 327 327 325 325 325 325 326 326 326 326 327 320 314 313 310 304 303 307 309 316 321 320 317 315 314 313 313 314 313 312 313 312 311 310 311 312 311 313 314 313 310 310 308 309 309 309 310
324 325 326 326 326 326 326 326 325 325 326 326 326 327 326 327 326 326 326 326 323 323 327 325 326 326 325 323 323 325 327 325 300 301 303 299 320 327 326 326 325 325 324 322 323 323 325 325 326 321 318 314 315 300 302 301 302 301 300 300 303 311 315 313 313 314 311 312 313 312 311 311 312 312 312 311 313 311 310 310 309 308 307 305 303
323 324 325 326 327 326 326 325 325 325 325 324 325 325 326 325 325 323 323 323 323 324 324 324 324 323 322 322 322 322 323 301 299 300 299 298 300 321 325 325 324 322 318 320 319 322 323 324 324 324 324 322 322 319 308 300 299 299 298 298 296 292 295 308 311 312 313 312 312 312 312 311 311 312 311 311 310 309 309 309 308 307 306 304 304
323 323 324 324 324 325 325 324 325 324 325 325 325 325 324 324 323 323 322 322 324 324 323 324 323 323 323 322 324 323 320 296 296 295 298 296 295 303 322 323 322 319 319 315 317 317 319 322 323 322 324 318 319 322 321 316 299 297 299 297 296 296 292 291 295 308 310 310 311 312 312 311 310 311 312 310 309 307 307 306 307 306 306 304 304
319 320 322 323 324 324 324 324 324 325 325 324 324 323 323 322 323 323 323 322 320 320 322 324 321 322 322 323 321 320 318 295 295 294 296 294 294 298 323 324 322 321 318 319 320 319 319 318 318 320 322 322 321 323 320 319 316 312 311 312 313 303 293 293 293 294 302 308 310 310 313 312 310 311 311 309 307 305 305 304 306 304 304 303 305
314 314 315 316 318 320 322 323 324 325 325 324 325 322 322 322 322 323 323 321 320 321 324 325 324 324 324 321 319 319 315 289 292 291 292 292 293 294 323 324 322 321 320 319 319 319 319 319 318 317 319 321 322 320 321 318 319 319 317 315 315 312 311 310 309 309 309 310 311 312 313 311 311 310 309 309 308 307 306 305 304 304 304 306 305
311 312 311 311 312 313 314 315 318 320 321 322 322 323 323 322 321 324 324 323 324 325 322 325 323 323 322 321 317 316 312 289 291 291 292 292 291 310 323 319 318 317 318 319 318 319 319 319 318 317 319 320 302 297 303 317 317 316 315 315 314 312 304 293 291 294 304 310 311 311 310 304 297 305 303 304 304 305 304 304 303 302 301 300 300
311 311 312 312 311 312 312 312 313 314 315 316 317 319 320 323 325 325 323 323 323 323 321 322 323 322 320 319 317 316 314 295 290 291 292 292 295 320 318 317 316 316 317 318 318 321 318 319 318 316 319 314 296 295 295 298 318 315 314 313 313 311 308 303 294 291 291 290 290 289 289 289 291 290 290 290 298 299 299 298 298 300 299 297 298
309 310 310 311 311 312 312 311 312 312 312 313 314 316 318 320 322 323 323 323 323 321 321 321 321 319 318 317 317 315 314 302 290 292 293 292 301 319 316 314 315 315 316 317 318 315 309 301 313 318 317 310 291 293 291 304 316 315 313 311 309 310 308 306 304 300 290 290 289 289 290 290 289 289 291 291 289 294 299 296 298 298 297 297 296
308 308 309 310 311 312 312 312 311 312 312 313 315 315 316 316 317 319 319 318 318 318 318 317 316 317 317 317 312 313 313 305 289 292 291 293 298 317 314 312 314 314 315 315 317 315 310 303 297 303 307 300 290 292 290 300 314 314 312 311 308 309 310 307 307 305 304 305 303 302 300 295 298 300 300 291 291 294 299 300 300 298 297 297 298
306 308 309 310 311 311 312 312 312 312 312 313 315 314 315 316 316 317 316 315 315 315 315 315 315 314 315 315 313 312 311 314 305 290 293 293 292 311 319 314 313 314 313 315 315 314 311 307 299 290 290 289 290 290 291 292 311 314 312 309 308 307 310 309 308 308 308 306 306 306 305 306 305 304 305 301 297 299 300 301 301 301 299 298 298
306 306 307 308 309 309 310 311 312 312 313 313 314 313 314 314 316 314 314 314 314 314 313 313 312 312 313 314 311 312 312 312 312 290 293 293 292 295 317 313 313 313 312 311 313 313 311 308 303 291 289 290 290 290 292 292 296 308 306 305 303 303 302 307 303 294 303 304 305 304 304 305 305 306 305 305 302 302 302 303 303 302 300 298 297
305 305 305 306 307 308 309 310 311 311 311 312 312 312 313 313 313 314 312 312 312 312 312 311 310 310 312 312 311 312 314 308 315 294 291 293 292 290 311 314 317 313 311 312 311 312 309 306 303 293 289 290 290 290 291 292 294 302 298 290 289 290 304 304 305 304 304 304 304 303 303 302 302 302 302 302 302 302 303 303 303 302 301 300 298
303 304 305 305 305 306 308 308 309 310 311 311 310 310 311 312 312 312 312 312 310 310 310 310 309 309 310 310 311 313 315 313 304 310 294 291 292 293 291 304 299 320 311 310 311 309 307 303 296 290 289 290 290 290 291 291 294 296 288 290 290 287 292 303 304 304 303 303 303 301 300 300 300 300 300 300 302 302 301 301 301 301 300 300 300
304 304 304 304 304 304 305 306 308 308 309 310 309 309 309 310 310 311 311 311 310 310 309 310 308 308 307 309 310 311 314 314 303 302 303 289 292 292 293 293 297 311 313 311 311 308 305 302 296 289 289 289 289 289 290 292 294 288 289 289 288 290 300 303 302 303 300 299 298 298 300 300 300 299 299 301 300 301 300 300 299 300 299 300 300
303 303 304 304 304 304 305 306 307 308 308 308 308 307 307 308 308 310 310 310 310 309 309 310 309 308 307 309 309 310 312 312 312 302 295 291 291 291 291 291 291 292 312 311 312 309 296 290 288 289 289 289 288 289 290 289 287 287 289 288 291 300 302 301 300 300 298 297 298 299 299 299 299 300 301 300 300 299 298 299 300 300 299 299 299
302 302 303 303 303 303 304 304 305 306 306 306 306 307 307 306 306 307 308 308 309 309 308 307 307 307 307 308 307 309 310 310 311 307 297 296 294 289 290 290 291 291 295 297 291 289 289 289 288 288 288 291 297 299 297 295 289 288 288 289 300 301 300 299 299 298 297 297 297 297 298 299 299 300 299 299 298 297 297 297 296 296 296 295 295
301 302 302 302 302 302 302 302 303 304 305 304 304 305 305 305 306 305 306 306 307 308 311 308 307 306 309 306 308 312 311 311 310 309 308 307 306 300 301 298 292 293 296 295 293 293 292 293 294 292 293 290 293 293 293 291 293 294 297 298 301 300 299 298 297 297 296 297 297 298 298 298 299 298 297 296 296 296 297 295 294 293 294 294 292
300 301 302 302 302 302 302 295 298 301 301 301 302 304 305 304 303 304 305 305 305 306 306 307 306 307 308 308 307 308 310 309 309 308 308 309 308 306 307 304 305 305 301 300 298 296 296 292 293 298 298 298 298 298 298 298 298 297 300 299 299 299 296 293 293 298 299 299 298 298 298 298 296 296 296 295 294 295 295 294 293 293 293 292 290
299 300 300 301 301 301 301 301 301 301 301 302 303 303 301 301 301 303 306 307 308 307 308 307 307 312 308 308 310 306 306 309 310 302 309 300 303 306 306 305 307 307 301 296 299 298 297 297 297 298 298 296 296 298 300 299 297 299 299 299 299 300 299 298 298 298 298 297 296 296 292 295 295 295 294 293 294 294 294 293 293 292 292 292 290
298 298 298 299 299 300 301 301 301 300 301 301 301 302 295 295 300 304 305 296 288 288 293 303 303 302 305 310 311 306 307 308 300 296 297 296 296 297 298 298 299 303 295 293 297 298 296 297 297 297 297 298 298 297 295 296 294 295 293 292 295 297 295 296 297 297 295 294 294 293 293 293 292 293 292 292 292 293 293 290 291 292 290 289 289
296 297 297 298 297 298 298 298 299 299 299 299 300 299 300 301 294 293 294 294 296 292 290 288 288 289 298 306 304 288 289 293 294 295 295 295 295 295 295 294 293 292 292 296 298 298 297 297 297 298 298 296 296 296 295 295 294 294 293 295 295 294 293 294 295 293 292 293 293 293 293 292 292 292 291 291 291 291 291 291 291 291 290 289 289
295 295 296 297 296 295 297 297 298 298 298 298 298 298 298 298 300 295 292 294 293 291 290 290 290 291 288 293 299 306 294 290 292 293 295 295 292 291 291 291 292 292 292 294 298 298 299 298 298 298 298 296 295 294 295 295 294 293 293 293 293 293 293 293 293 294 293 293 292 292 292 292 292 291 291 290 289 290 290 290 290 289 289 289 289
295 295 295 295 295 295 295 297 297 296 297 297 298 298 297 298 296 298 296 290 288 289 288 288 289 289 289 289 290 291 291 290 289 290 291 290 290 290 290 290 291 291 291 296 299 298 298 298 296 296 296 295 295 294 295 295 294 294 294 293 292 293 294 295 292 295 292 291 292 292 292 292 291 291 290 290 289 289 289 289 289 289 289 288 288
295 295 295 296 295 295 295 295 295 295 296 296 297 296 297 297 297 297 297 298 298 292 289 288 288 289 289 289 288 288 288 289 289 288 289 289 289 289 291 292 290 291 293 297 298 298 299 299 298 298 298 296 295 295 294 294 294 294 293 294 294 295 294 295 294 292 292 292 292 292 292 292 291 290 290 290 290 289 289 288 288 288 288 288 287
295 292 288 290 294 295 295 295 295 295 295 295 295 295 295 296 296 296 295 295 296 296 298 299 291 288 295 290 288 288 288 288 289 289 288 288 288 289 291 295 293 293 296 301 301 301 298 298 296 297 297 295 295 294 293 295 294 293 293 292 293 292 292 291 291 293 292 292 291 292 291 290 291 290 290 289 289 288 288 288 288 288 287 287 287
295 295 295 294 295 295 295 295 295 294 294 294 295 294 294 294 293 295 295 296 296 296 296 300 300 290 290 292 288 288 288 288 288 288 288 288 289 290 293 292 293 295 295 299 300 299 299 299 299 299 299 296 296 294 294 294 294 294 294 294 291 291 291 291 291 291 290 291 291 291 291 291 291 290 290 290 289 288 288 288 288 288 287 287 287
295 295 295 295 294 294 294 294 294 294 291 292 292 292 293 293 293 293 294 294 294 296 296 297 298 296 294 295 289 288 288 288 288 288 288 288 289 291 294 295 295 295 292 295 297 297 298 298 300 300 298 296 295 296 294 295 296 295 291 291 291 291 291 290 291 291 291 292 292 291 291 291 291 290 290 289 289 289 288 288 288 287 287 287 286
295 295 294 294 293 293 293 293 293 289 291 291 291 292 292 292 293 292 291 292 292 292 293 296 295 298 296 294 292 292 289 287 287 287 288 288 290 294 293 291 294 293 294 297 297 297 297 298 299 299 298 297 296 296 293 294 293 293 293 291 291 290 289 289 288 289 290 292 291 291 291 291 291 291 290 289 289 288 288 288 288 287 287 287 287
295 291 288 288 289 292 292 291 291 291 291 291 292 290 290 290 290 290 291 291 292 292 293 295 297 298 298 294 294 292 290 291 290 289 289 290 292 293 294 294 295 294 296 297 298 298 298 297 297 298 297 297 295 295 293 294 294 293 292 292 291 291 290 291 291 291 292 291 291 292 291 291 291 291 290 290 289 288 288 288 288 287 287 287 287
295 296 292 288 291 291 291 290 291 291 290 291 290 291 289 289 289 290 290 290 290 291 292 292 295 297 298 297 295 295 294 293 292 292 291 292 293 294 296 295 295 296 295 297 297 298 297 297 297 296 296 295 295 294 294 292 292 293 292 292 291 290 290 290 291 291 291 291 291 291 291 290 290 290 290 290 289 289 288 287 287 287 287 287 287
295 295 291 290 289 292 291 290 290 290 290 290 290 290 290 289 289 290 291 290 290 291 292 294 296 299 299 296 291 293 297 295 295 293 293 294 294 295 296 296 295 296 295 296 296 295 297 296 294 295 294 293 293 292 293 293 292 292 291 291 290 289 290 290 291 291 291 291 291 291 291 290 290 289 289 289 288 288 288 288 288 288 288 288 288
295 294 294 293 292 291 290 290 290 290 290 289 290 290 289 289 290 290 289 289 289 290 291 294 295 295 291 287 289 288 296 297 296 294 296 296 295 296 296 297 297 297 297 294 295 293 293 293 293 294 293 293 293 293 293 291 291 291 291 290 289 289 289 290 291 290 290 291 290 290 289 289 289 289 289 288 288 288 288 288 288 288 288 288 288
296 295 294 293 292 291 290 290 290 290 290 290 290 288 289 290 290 288 289 288 287 287 287 291 293 293 292 288 289 290 298 297 292 295 294 296 295 296 296 295 295 294 297 297 296 295 294 293 293 294 293 293 292 291 291 291 290 290 290 289 289 288 289 289 290 290 290 290 289 289 289 289 289 289 289 288 289 289 288 288 288 288 288 288 288
295 294 294 293 292 292 291 291 290 290 290 289 289 290 290 291 292 291 290 289 290 290 291 292 293 292 291 292 291 293 294 295 295 294 293 293 293 293 293 294 295 295 295 293 294 294 294 293 293 293 292 292 290 290 291 291 291 290 289 289 289 288 288 288 288 288 288 288 288 289 289 289 289 289 288 288 288 287 287 287 288 288 288 288 288
297 295 294 293 292 292 291 291 290 290 289 289 289 290 290 291 291 290 290 290 289 289 290 291 292 291 291 292 292 292 293 293 291 292 292 292 291 290 291 292 292 293 293 293 293 293 293 293 293 292 291 291 289 290 290 289 290 290 290 289 288 288 288 287 287 287 287 286 287 288 289 289 288 289 288 288 288 287 288 288 288 287 288 288 288
297 296 294 293 293 292 291 292 290 291 290 289 289 289 289 289 289 289 289 289 290 290 289 290 291 291 291 292 292 292 292 292 292 293 292 292 292 292 292 292 292 292 292 292 290 291 292 293 293 292 290 289 289 290 290 290 290 289 290 289 288 288 288 287 286 286 286 286 287 287 288 288 288 288 287 288 288 288 288 289 289 289 288 288 288
298 296 295 295 293 293 293 292 292 291 291 290 289 289 288 289 289 289 288 289 289 289 290 291 291 291 290 290 290 290 291 292 291 290 291 290 291 292 292 291 292 291 291 291 291 292 291 291 291 290 289 289 288 288 290 291 289 291 290 290 288 286 285 284 284 285 286 286 287 286 286 286 287 288 288 288 288 288 289 289 289 288 288 288 288
297 296 295 294 294 294 293 293 292 290 291 290 290 289 289 289 289 289 289 290 290 290 290 290 290 291 290 291 291 290 290 290 290 290 291 291 290 291 290 290 291 291 291 291 291 292 291 291 290 290 289 288 288 289 289 290 289 289 290 288 285 283 282 282 283 284 285 285 284 285 285 286 287 288 288 288 288 289 289 289 289 289 288 288 289
296 296 295 294 294 294 293 293 292 292 292 292 291 291 290 290 290 290 290 290 289 290 290 290 290 290 290 289 290 290 290 289 290 290 290 291 291 290 291 291 290 290 290 290 290 289 290 290 289 290 289 289 289 289 288 287 288 288 287 286 283 281 281 281 282 283 282 283 285 286 286 287 288 288 288 289 289 290 290 289 289 289 289 289 289
295 295 296 295 294 294 294 294 293 293 292 292 292 291 291 291 291 291 290 290 290 290 290 290 289 289 289 289 289 290 290 290 290 290 290 289 290 290 290 290 290 290 291 290 291 290 290 289 289 288 288 288 288 288 288 288 286 285 284 283 281 281 280 280 281 282 283 283 283 284 285 286 286 288 290 290 290 289 289 289 289 289 289 289 289
295 295 295 295 295 294 294 294 293 293 293 292 291 291 290 290 291 291 291 291 291 291 290 290 290 290 290 290 290 290 290 290 290 290 289 290 289 290 290 290 290 289 289 289 290 290 290 290 290 289 288 288 288 288 288 286 284 283 282 281 281 280 280 280 281 281 281 282 283 284 286 287 288 289 290 290 290 290 289 289 289 289 290 289 289
Wind_Speed
7 7 7 7 8 7 8 9 10 8 9 9 8 8 6 6 6 6 7 7 7 8 8 9 8 7 7 7 6 6 5 5 4 4 4 4 4 4 4 5 5 5 5 4 4 4 5 5 5 5 5 4 3 4 4 4 3 4 4 4 4 3 4 5 5 6 3 2 2 3 3 2 3 3 4 2 1 4 2 2 5 7 8 7 6
6 7 7 8 9 9 9 7 8 7 9 9 8 8 7 7 6 6 6 7 7 8 9 8 8 8 8 7 7 6 6 5 5 4 5 5 4 3 3 3 5 4 3 4 4 3 3 5 6 5 5 4 6 3 3 2 1 3 4 4 4 3 2 4 4 4 5 2 2 3 4 2 1 2 3 1 1 2 1 1 3 1 3 1 8
8 7 7 7 8 9 9 9 8 8 9 9 9 8 8 8 7 7 6 8 8 8 9 8 9 9 8 8 8 7 6 6 4 5 5 5 5 4 3 4 4 4 3 3 4 4 3 3 3 3 2 3 3 4 3 5 5 5 4 5 5 3 3 3 2 5 3 3 0 3 3 3 4 2 3 3 3 3 2 1 3 2 1 1 1
9 8 7 7 8 8 8 8 9 9 9 7 9 9 8 8 8 8 7 7 8 8 9 9 9 9 8 8 8 7 7 6 6 5 6 5 5 5 4 4 4 4 3 3 4 3 3 3 3 2 2 1 2 2 2 1 2 4 2 3 2 5 4 1 1 3 1 1 0 3 5 0 3 3 2 4 4 3 0 2 1 2 1 3 6
8 8 7 6 7 7 8 8 8 9 8 7 9 9 9 8 8 9 8 8 8 8 8 8 9 9 8 9 8 8 8 7 7 6 5 5 5 5 5 5 4 4 4 2 2 2 3 2 3 3 2 2 2 1 3 2 2 2 1 1 3 2 1 3 4 1 0 2 2 2 3 4 1 4 4 6 4 4 2 3 5 2 1 2 4
7 7 6 7 8 8 8 8 8 9 8 7 8 9 9 9 9 8 8 8 8 8 8 8 8 8 8 8 8 8 8 8 8 7 7 6 5 5 4 5 4 4 4 4 6 3 3 4 3 3 3 2 2 2 2 2 1 2 2 7 5 3 3 3 3 2 3 2 2 2 2 5 6 3 3 3 5 6 5 4 6 6 4 5 5
7 6 6 7 7 8 8 9 7 6 8 8 7 8 10 9 9 9 8 9 9 8 8 8 7 8 7 6 7 7 7 7 7 7 7 7 7 5 5 6 6 3 4 6 6 6 6 5 4 4 4 4 3 3 3 2 2 3 3 2 5 4 2 4 3 2 2 3 2 3 3 2 3 5 3 4 7 8 5 2 4 6 6 4 6
4 4 4 5 6 8 8 5 7 7 7 8 8 6 4 7 8 8 9 10 9 9 9 9 7 8 8 7 8 7 7 6 6 6 6 7 6 8 8 7 7 8 7 7 7 7 7 6 6 5 5 4 5 4 3 3 2 2 2 0 1 1 3 3 2 3 5 3 4 4 4 4 2 5 4 3 4 7 7 6 6 7 6 5 6
5 6 4 4 4 5 7 8 6 6 7 7 7 7 7 6 7 8 8 9 8 9 9 9 9 9 9 9 9 8 7 7 5 4 5 8 6 7 8 8 8 8 8 8 8 8 7 6 6 6 3 7 10 8 6 3 2 3 3 3 3 4 5 5 4 5 5 5 5 5 5 5 5 3 5 4 5 6 6 6 7 8 7 7 7
5 5 6 6 5 5 5 5 5 6 6 6 5 6 6 6 5 3 3 4 5 7 7 8 9 9 8 10 7 6 5 4 6 6 4 3 5 6 7 8 6 9 9 9 8 6 7 6 4 10 11 9 8 7 6 2 4 5 3 2 2 4 4 5 5 5 6 6 5 5 6 6 6 1 1 3 4 4 4 6 8 9 8 7 7
5 4 5 4 4 4 4 5 7 5 3 4 5 6 5 4 4 1 3 5 3 7 8 7 7 6 2 7 8 7 6 2 8 5 1 4 3 7 7 8 8 5 6 9 7 8 5 5 6 8 8 7 6 8 7 5 4 6 6 6 4 4 4 5 6 5 6 6 6 6 7 7 6 6 6 5 4 4 5 6 7 8 7 7 8
5 5 5 5 4 4 4 3 2 6 7 6 5 5 4 5 4 3 6 7 5 6 9 6 4 3 3 9 7 8 3 3 4 3 2 4 5 5 7 5 4 3 5 9 7 7 1 4 5 5 5 5 5 8 7 7 7 5 4 4 6 7 4 2 4 4 4 5 6 5 6 7 5 3 4 5 5 3 4 5 6 7 7 8 8
5 4 4 5 4 3 4 3 3 3 2 3 4 2 2 3 3 4 5 6 4 4 4 5 2 4 5 9 10 6 2 2 2 3 2 4 6 5 5 5 5 2 4 6 4 5 8 5 4 4 4 6 4 5 6 8 7 4 2 1 0 2 4 5 4 2 5 6 6 5 5 4 4 5 7 4 4 4 5 6 6 6 7 8 8
6 5 5 5 4 3 3 3 3 3 3 3 4 4 3 3 3 4 4 2 4 8 9 9 4 7 6 6 8 4 2 1 1 3 3 5 6 3 5 4 5 4 5 7 10 11 6 5 6 6 5 6 5 4 4 5 7 5 5 5 6 4 3 5 4 4 2 5 6 6 3 3 3 4 3 3 3 4 5 6 6 7 7 9 10
7 6 6 5 4 3 3 4 2 2 2 2 3 5 4 2 5 6 7 6 8 8 6 5 6 6 5 2 4 0 1 4 3 2 3 5 6 5 6 6 9 10 8 6 3 3 3 1 2 3 6 4 4 6 1 3 6 5 4 5 6 5 5 4 2 3 4 5 5 3 2 3 3 1 1 1 2 3 4 6 7 8 9 10 10
7 6 6 6 6 4 4 3 2 2 1 1 2 3 6 7 8 5 3 6 7 6 7 6 7 6 3 4 5 6 4 5 5 6 5 7 4 5 6 5 4 5 5 3 3 3 2 2 2 2 5 6 7 10 7 5 3 3 4 4 5 4 7 4 4 7 8 6 5 5 5 6 6 5 5 4 4 4 5 6 7 8 10 10 10
6 5 4 5 5 6 6 3 3 3 1 1 2 2 2 3 3 4 6 7 5 4 4 5 5 5 7 8 9 9 6 7 7 7 7 7 5 5 6 5 4 3 4 4 2 6 6 6 2 2 5 6 5 6 6 6 4 4 4 4 4 4 4 4 6 8 9 10 9 9 8 6 5 4 3 3 3 5 5 6 7 7 9 10 10
7 7 7 6 5 4 4 5 4 2 2 3 3 1 2 2 4 4 4 4 5 5 5 6 6 6 8 7 7 7 7 6 9 8 9 9 7 6 5 6 3 3 3 2 5 6 7 11 9 3 7 6 6 9 9 5 4 3 4 4 4 5 6 5 4 3 5 5 5 4 4 4 3 2 2 3 3 4 4 6 7 8 9 9 10
7 7 6 7 6 6 5 5 5 5 5 4 3 2 3 4 3 4 4 4 4 5 6 5 6 7 7 9 6 6 6 5 7 7 7 8 7 6 7 5 4 4 4 3 4 6 6 9 13 11 9 7 8 8 9 6 5 3 2 3 5 7 5 7 5 5 4 4 4 3 4 4 5 5 7 10 8 6 5 5 6 7 8 8 9
6 5 5 5 4 4 4 4 4 5 6 5 4 5 4 4 5 4 5 6 6 6 8 7 8 7 7 6 7 7 7 6 7 8 10 10 10 5 7 3 4 4 3 5 5 5 6 5 8 9 10 9 9 9 8 9 6 2 1 3 3 1 7 4 5 2 1 3 4 4 6 5 6 8 7 9 9 10 9 6 5 5 7 9 10
5 6 5 5 4 4 5 5 6 6 7 5 4 5 6 5 4 5 5 5 5 5 6 7 7 7 7 8 8 8 7 8 7 10 9 10 5 2 6 4 5 5 5 5 5 5 5 6 6 6 8 9 9 10 11 12 12 9 8 7 6 5 4 3 3 1 4 5 6 6 6 6 6 7 8 9 10 9 8 8 7 7 9 10 11
6 6 6 6 5 5 5 4 5 5 6 6 7 6 6 6 6 5 6 7 7 7 7 8 8 8 8 8 8 9 8 8 8 7 8 8 4 2 4 3 2 3 4 5 5 4 8 6 6 5 8 10 10 10 11 12 11 8 7 6 6 9 4 4 1 5 6 5 6 6 5 6 6 7 7 7 8 8 6 8 9 9 10 10 11
7 7 6 6 6 6 6 6 5 4 5 6 7 8 8 7 7 7 7 8 9 9 8 9 9 9 8 8 8 8 7 6 8 8 8 7 3 4 6 7 5 4 4 4 4 7 8 8 7 7 10 10 10 10 10 10 9 6 5 6 5 3 4 5 4 3 5 5 5 5 6 7 7 7 7 8 7 6 6 7 9 9 10 9 10
6 6 7 7 7 8 8 7 7 6 6 6 6 7 8 9 9 8 9 9 9 10 9 10 11 11 11 10 9 8 8 8 5 5 6 4 1 4 5 8 7 3 5 4 5 10 8 8 8 10 11 11 10 10 11 9 7 5 3 2 2 4 5 4 4 4 3 4 5 6 6 5 5 6 5 5 5 6 7 7 8 10 11 11 11
8 8 7 8 8 8 7 7 8 7 7 7 7 8 9 9 9 10 10 10 10 11 9 8 9 10 10 10 10 10 10 9 8 7 9 9 4 2 7 8 10 9 4 4 6 8 12 15 14 12 12 13 14 12 9 7 6 3 4 5 4 4 4 3 3 3 4 5 5 4 5 5 5 5 5 6 7 7 8 9 10 11 10 11 11
9 9 9 9 9 9 9 9 9 9 9 8 9 8 9 9 9 9 10 11 11 11 12 11 8 11 10 9 11 10 11 9 8 8 7 7 6 6 7 8 10 13 13 11 15 19 18 15 13 13 12 11 9 6 6 5 7 8 7 5 5 3 2 3 3 3 4 4 4 4 4 3 4 5 7 7 8 8 8 9 8 9 9 9 9
9 9 9 10 10 11 11 10 9 9 10 10 10 10 10 10 10 10 11 11 12 12 6 8 7 10 10 12 12 2 1 5 5 7 6 7 5 5 6 7 11 13 10 10 12 10 12 11 8 7 7 4 5 10 7 7 5 4 4 6 4 1 2 2 3 5 4 4 4 3 3 3 4 5 6 6 8 8 8 8 8 9 9 9 10
9 9 10 9 9 9 10 9 10 10 11 11 10 9 10 11 11 11 11 10 11 12 14 10 6 8 10 8 8 3 3 9 10 10 8 7 6 6 7 7 7 7 8 8 9 10 9 8 8 6 6 6 7 5 6 6 6 5 3 1 1 2 2 2 4 4 3 2 4 4 4 5 6 6 7 7 7 8 8 8 8 9 9 9 9
10 11 10 10 10 10 10 11 11 10 10 10 10 11 11 12 12 12 13 9 7 8 7 8 11 5 6 7 3 5 5 8 8 7 10 9 6 8 8 8 8 8 10 14 11 9 8 8 8 7 7 5 4 6 6 5 2 2 2 1 2 2 3 4 3 2 3 4 4 4 3 5 6 6 7 7 8 8 8 8 8 9 9 8 9
10 10 9 9 9 9 10 10 11 11 11 11 11 11 11 11 11 10 8 7 7 7 4 3 5 5 4 2 2 3 7 8 5 6 8 8 9 12 11 13 12 9 15 17 12 9 7 6 6 6 5 5 4 3 2 2 2 2 3 1 3 1 3 3 2 2 3 3 3 3 3 4 5 6 7 8 8 8 8 8 8 8 8 8 8
11 11 11 11 11 10 10 10 11 12 12 13 13 14 13 11 14 15 16 11 3 5 8 5 3 4 2 4 1 9 8 2 7 11 12 11 12 13 12 12 13 19 19 11 7 7 7 6 6 5 5 4 3 3 3 2 2 2 2 0 0 1 1 2 2 2 2 2 3 3 3 4 5 5 6 7 8 8 8 7 8 8 8 8 9
9 9 10 11 11 9 11 12 12 12 12 11 12 12 12 14 12 11 16 16 11 7 6 6 6 3 2 1 3 3 6 5 2 8 13 15 14 13 14 16 19 19 18 13 7 7 6 6 5 5 4 3 3 3 2 1 1 0 0 1 1 1 0 0 2 3 2 3 3 3 4 4 5 6 6 6 6 7 8 7 7 7 8 8 8
10 10 10 10 10 10 10 10 11 11 12 12 11 12 12 13 14 13 4 1 1 0 4 6 6 7 6 7 5 5 4 5 8 6 10 14 14 14 15 17 18 17 13 6 5 6 5 5 4 4 4 3 3 2 2 3 1 1 0 0 0 0 1 2 0 4 1 2 3 4 4 4 5 5 5 5 6 7 7 7 7 7 8 8 7
10 9 9 10 10 9 9 10 10 10 11 11 11 12 12 12 13 13 13 8 5 4 7 9 10 8 7 6 9 9 11 10 10 10 9 7 12 15 14 10 13 14 7 5 5 5 4 4 5 6 5 4 3 3 3 2 2 1 0 0 1 1 2 2 3 2 2 3 3 3 4 4 5 6 6 6 6 7 7 7 7 8 8 8 8
9 9 10 8 9 10 10 10 10 9 10 11 11 11 12 12 12 12 10 12 12 10 9 9 11 12 9 5 8 11 12 14 14 14 11 7 9 13 13 9 5 3 3 6 6 6 4 4 4 5 5 4 3 3 3 4 2 1 1 0 1 1 1 1 2 3 3 3 4 3 4 5 5 5 6 7 7 8 8 8 7 6 6 8 8
8 8 9 8 8 8 9 9 9 10 10 10 9 8 8 9 10 10 11 11 11 11 10 9 3 7 4 6 12 13 14 14 14 15 15 14 8 9 7 6 5 5 4 4 6 6 5 5 5 5 4 4 4 3 3 2 2 2 1 1 0 0 0 1 1 2 3 3 3 3 4 5 5 5 6 6 5 7 8 6 6 5 5 7 8
8 8 8 7 7 7 8 8 9 9 8 6 7 7 7 7 7 8 9 9 9 10 11 8 6 5 6 4 4 7 10 11 12 14 14 14 13 6 4 5 5 4 2 2 3 5 4 4 4 4 5 4 4 5 3 3 3 2 1 1 1 1 0 1 1 1 3 3 4 5 4 4 5 5 6 7 7 7 7 7 7 6 6 7 7
7 7 7 6 7 8 9 9 9 7 7 7 8 8 9 8 6 6 5 5 6 7 8 10 8 4 6 5 8 6 8 11 13 10 8 9 5 5 5 2 6 6 6 8 9 7 6 5 5 5 5 5 5 5 3 2 1 0 0 0 1 0 2 3 4 5 6 4 4 4 5 5 5 6 6 6 7 7 7 7 8 8 8 7 7
7 1 3 2 5 7 7 7 7 7 7 8 8 7 6 6 6 4 5 5 6 6 7 10 9 8 6 7 8 10 11 8 7 9 10 9 8 6 7 8 6 7 7 6 5 6 6 5 5 5 5 5 3 4 2 2 1 0 0 1 1 1 1 2 2 2 3 4 4 4 5 5 5 5 6 6 6 6 7 7 7 7 8 8 8
6 6 3 5 7 7 7 5 6 6 6 7 7 7 5 5 5 5 4 4 4 5 5 8 8 9 6 10 10 9 7 7 7 9 9 10 9 8 7 7 7 6 5 7 7 6 5 5 5 3 4 5 3 2 2 1 0 0 1 0 1 1 1 2 2 2 3 4 3 4 4 5 6 6 6 5 6 7 7 8 8 7 6 6 7
7 6 7 6 6 7 7 7 6 6 6 6 6 6 4 3 3 3 4 3 4 5 6 9 10 6 4 9 12 11 6 6 7 7 7 8 7 8 8 7 6 7 6 5 5 5 6 4 3 3 3 3 3 2 2 1 0 0 1 1 1 2 2 2 1 2 3 3 3 4 5 6 6 6 6 6 7 7 6 6 6 7 7 7 7
6 7 7 7 6 7 7 8 8 7 7 4 5 5 2 1 2 3 3 3 3 4 6 7 3 5 7 9 5 5 4 8 8 9 8 8 6 5 6 6 7 6 6 5 4 4 4 4 4 4 3 3 3 2 1 2 0 1 2 2 2 2 2 2 2 3 3 3 3 4 5 5 6 6 6 6 6 7 7 7 7 7 6 6 6
7 7 7 7 6 6 6 7 7 7 6 7 6 4 3 2 1 0 1 2 2 3 6 5 3 6 7 8 8 2 6 8 8 7 5 4 4 4 5 8 7 6 7 6 4 4 4 4 4 4 3 4 4 2 2 2 2 2 2 2 2 3 2 3 3 3 3 3 3 4 5 5 6 6 6 6 6 7 7 8 7 7 6 6 6
7 7 7 7 7 6 6 6 6 6 5 6 6 5 3 3 3 3 3 2 1 1 3 3 4 5 5 7 7 8 9 8 8 8 10 8 8 7 6 5 5 5 5 4 3 3 3 4 4 6 5 3 2 3 3 3 3 3 3 2 2 2 2 3 3 3 3 4 4 5 5 5 6 6 6 6 6 7 7 7 6 6 7 6 5
7 8 7 8 8 8 7 7 6 6 5 6 6 7 7 6 6 5 4 4 3 4 3 4 4 4 6 4 4 5 8 8 7 9 8 8 9 7 5 4 4 4 4 4 3 2 3 3 6 5 3 3 2 2 3 3 3 3 3 3 3 3 3 3 3 4 4 4 4 5 5 6 6 6 6 6 7 7 7 7 7 7 6 5 5
7 7 7 7 8 8 8 8 8 7 7 6 7 7 7 7 7 6 4 4 4 4 3 3 4 4 4 5 5 7 6 8 8 8 9 8 8 7 5 5 4 5 5 5 6 7 5 5 4 4 3 3 2 2 3 3 3 2 2 2 3 3 3 4 4 4 4 4 4 5 5 6 6 5 6 7 7 7 8 7 5 6 7 7 6
7 6 7 7 7 8 8 9 9 8 8 8 8 8 6 7 7 6 4 5 5 3 3 6 6 6 6 7 7 7 7 8 7 8 9 7 6 6 5 4 5 5 4 4 4 6 7 7 7 5 4 3 3 3 3 2 2 2 2 3 5 5 5 5 5 5 4 5 5 5 5 6 6 6 6 7 8 7 6 6 5 5 6 7 7
6 6 6 6 6 7 7 8 8 7 8 9 8 7 8 7 7 7 7 8 8 8 8 8 8 7 8 8 8 8 8 8 9 8 7 7 7 5 4 4 4 4 4 3 3 4 5 5 5 4 3 3 3 3 3 2 3 3 3 5 6 7 7 8 6 5 5 6 6 6 6 6 6 6 7 7 7 7 7 8 7 7 6 7 6
5 5 5 6 6 6 6 7 7 7 7 8 7 8 8 8 8 7 8 8 8 9 9 9 9 9 9 9 9 9 8 7 8 7 7 6 5 4 3 4 5 5 4 5 5 5 4 5 4 3 3 3 2 2 3 3 3 4 4 4 7 10 10 10 8 6 8 7 6 6 6 7 7 7 7 7 6 6 7 6 6 6 5 5 4
4 4 4 5 5 6 6 6 6 6 7 7 7 7 7 6 7 7 7 8 9 9 9 9 9 9 9 9 9 9 7 7 7 7 5 5 4 4 4 4 4 4 4 4 4 4 4 4 4 3 3 3 2 2 3 4 4 5 5 5 8 9 11 12 10 9 8 6 7 6 6 7 7 7 7 7 6 6 5 6 6 5 5 4 4
4 4 4 4 4 4 5 5 6 6 6 6 6 5 7 6 6 7 7 7 8 7 7 8 8 8 8 7 7 7 7 7 6 6 5 5 5 4 4 4 4 5 4 3 3 3 3 3 3 3 3 3 3 3 4 5 5 5 5 6 7 10 12 12 9 10 12 10 7 6 7 7 7 7 7 7 7 7 6 7 5 6 6 6 5
Wind_Direction
155 155 165 174 172 168 170 187 199 173 164 163 167 165 166 162 164 164 161 157 160 161 154 157 157 154 149 150 140 141 135 130 126 123 109 97 94 107 116 112 108 89 97 104 82 67 74 86 76 63 48 44 69 70 41 62 59 43 52 74 83 47 54 93 104 109 109 102 141 89 64 249 115 45 75 78 155 158 149 82 162 195 194 155 143
173 170 176 174 181 165 182 192 181 173 168 168 175 169 166 164 164 167 173 161 172 172 161 159 162 161 158 157 149 146 151 140 146 132 120 119 111 106 123 103 83 86 71 77 75 71 50 57 62 47 41 40 351 5 74 344 90 108 60 47 80 77 52 93 104 116 116 167 131 118 126 296 137 107 76 41 106 311 232 131 176 196 23 57 145
162 179 174 173 178 178 173 188 173 186 180 176 177 169 163 166 170 178 183 171 182 178 166 166 168 166 164 162 162 155 155 150 151 147 137 147 141 126 122 120 121 131 140 135 128 99 89 95 100 87 58 48 33 49 18 -0 10 58 28 38 54 50 63 64 122 127 135 108 240 172 88 49 329 92 125 112 16 329 282 74 336 349 44 24 34
157 159 165 174 177 179 178 175 180 178 180 184 177 165 165 169 181 187 190 178 184 180 165 176 171 171 170 169 163 166 156 159 161 163 163 157 158 153 146 144 159 168 162 173 128 166 126 123 113 129 108 105 35 66 61 100 17 72 137 113 73 51 42 3 352 7 68 174 138 262 122 141 216 203 207 187 184 226 296 310 250 298 14 8 331
158 154 167 167 171 180 187 177 178 178 185 193 180 172 171 177 183 192 180 189 184 176 172 182 177 174 176 176 169 173 167 168 170 166 162 173 172 165 171 162 170 180 175 160 126 172 162 189 143 135 145 123 149 241 91 343 356 104 51 166 133 83 38 336 346 292 270 269 113 342 341 242 95 358 336 340 337 328 311 22 354 355 347 317 314
163 172 159 160 176 176 184 180 177 179 182 192 190 184 181 184 181 192 182 187 182 182 187 183 186 180 182 189 183 180 182 177 175 178 169 179 172 177 187 166 186 191 181 193 183 183 180 194 170 169 171 180 153 71 54 110 39 16 41 12 37 96 14 4 300 10 306 283 209 252 217 329 325 351 306 350 353 332 341 360 342 342 359 333 333
168 164 170 166 175 184 181 176 165 181 182 181 193 198 191 192 184 192 185 195 182 192 194 190 191 198 187 218 195 190 192 186 189 180 177 179 186 171 196 198 194 216 202 203 204 188 191 195 191 186 190 188 170 166 161 113 76 50 29 53 13 30 353 286 302 297 307 290 280 260 298 272 205 287 337 121 251 232 220 53 328 335 326 329 319
166 149 165 179 180 187 151 177 170 186 185 182 181 191 234 210 198 199 197 203 195 200 197 201 193 219 181 222 219 201 199 190 194 185 201 190 185 194 210 209 211 208 215 218 208 202 203 202 196 202 200 196 194 172 157 172 160 200 166 209 29 336 261 257 260 266 249 264 268 290 263 266 199 191 252 302 296 316 351 4 327 319 313 319 308
144 148 157 163 191 185 178 161 187 196 193 184 188 190 195 213 218 220 211 211 206 204 206 208 207 209 216 203 211 203 199 193 204 198 216 226 206 216 218 217 224 226 214 216 212 209 207 199 205 207 153 78 71 60 44 54 211 206 193 196 230 236 238 251 250 248 257 270 267 249 262 257 258 267 281 292 334 13 5 334 305 303 309 311 309
142 158 163 166 171 181 178 169 180 191 188 185 193 198 194 211 216 248 292 276 231 222 226 223 219 217 219 212 213 205 190 194 87 75 33 4 243 233 228 229 237 239 228 220 210 212 198 198 157 99 112 126 130 120 120 147 299 314 342 324 245 237 235 253 260 268 274 271 273 282 277 285 279 301 67 318 333 2 338 310 304 309 306 299 301
133 137 122 125 135 146 161 156 177 188 200 192 212 209 203 213 207 188 357 336 322 319 289 222 224 237 259 2 312 331 307 56 96 67 50 342 312 249 243 232 231 262 294 252 228 212 198 205 151 123 124 129 149 159 164 169 216 278 319 64 64 5 317 265 250 269 290 284 284 291 292 301 298 307 282 286 276 293 300 308 300 303 303 310 308
101 107 114 119 124 141 136 142 158 158 166 187 187 206 194 202 169 177 191 224 236 226 239 239 253 252 217 218 210 216 208 336 107 89 10 314 304 286 264 259 253 35 326 324 11 310 297 223 154 163 187 185 201 181 188 198 202 220 267 351 45 68 63 21 331 308 298 299 284 296 319 283 310 25 342 360 15 8 310 298 296 303 310 306 304
118 105 98 98 107 123 133 125 120 129 166 172 163 147 173 166 187 194 216 232 260 286 289 262 254 270 256 241 212 139 170 116 93 126 236 273 282 294 259 352 34 149 177 186 238 250 240 218 178 166 151 140 211 209 190 184 197 176 9 30 95 81 72 69 56 335 309 319 319 298 296 354 339 347 49 33 14 312 306 298 307 308 303 297 297
93 99 106 103 101 106 112 124 141 143 161 191 157 187 193 198 207 223 204 212 243 245 236 230 244 253 263 288 353 11 168 189 126 170 218 249 264 263 240 204 210 218 198 205 203 204 195 185 169 177 141 169 201 207 210 171 153 173 198 214 227 145 112 108 94 73 335 280 290 292 326 52 356 55 48 28 328 310 305 299 308 306 304 297 302
77 66 60 69 88 96 122 121 128 133 162 183 175 165 213 233 239 226 217 200 225 224 240 245 234 229 216 163 158 172 329 138 159 172 229 229 245 246 242 203 203 203 199 184 166 137 128 90 58 112 149 130 49 23 10 181 171 168 179 199 216 198 211 222 238 247 222 218 245 254 70 56 46 14 331 319 319 305 308 302 303 295 289 284 277
65 56 59 46 45 40 47 54 76 148 166 169 219 203 198 204 212 198 211 215 213 209 219 214 218 197 217 176 130 204 183 182 170 193 189 220 212 231 232 226 218 181 162 146 181 141 138 124 152 116 84 83 44 42 24 340 270 205 181 176 195 114 63 53 32 33 30 35 41 44 53 49 39 33 22 355 326 314 301 292 286 280 281 283 281
60 56 46 48 29 17 9 15 48 315 354 251 226 215 189 205 214 197 205 225 212 187 187 216 201 191 179 179 177 169 162 183 189 186 201 204 204 236 230 215 203 181 147 173 138 64 38 11 5 92 96 79 43 32 35 353 273 228 215 193 173 139 129 97 62 50 54 64 68 71 77 80 90 89 73 40 349 340 303 291 281 292 295 292 294
27 24 20 18 10 17 359 341 347 347 289 278 261 222 230 217 210 197 209 193 202 189 194 207 204 186 190 186 187 165 159 160 183 192 202 196 219 245 226 216 178 182 142 176 101 89 55 31 13 63 89 79 42 35 17 349 265 233 207 199 197 214 156 159 150 104 95 96 86 99 119 143 154 198 216 191 192 250 283 289 310 310 293 286 290
18 18 7 3 350 7 348 344 331 324 312 306 333 300 262 256 236 194 195 207 202 186 187 182 191 195 189 206 139 160 156 160 195 201 212 216 226 245 236 203 163 197 167 165 130 107 88 52 44 53 72 78 59 52 29 355 298 231 246 222 208 227 184 165 169 159 181 192 187 188 206 193 212 223 216 197 190 213 244 274 296 290 289 297 299
4 359 1 356 349 339 349 325 329 319 310 331 318 297 276 243 227 210 214 226 211 207 198 204 194 198 186 166 157 182 159 164 179 211 214 227 233 280 276 193 176 172 215 164 164 130 111 98 66 56 81 79 72 60 47 18 325 264 263 303 291 138 118 131 44 28 171 252 267 240 250 238 219 214 226 189 197 204 212 232 247 272 283 292 299
344 346 335 327 334 347 345 351 342 326 310 304 300 286 283 274 247 239 237 239 238 210 210 229 209 204 182 182 185 189 172 171 165 193 217 234 239 252 276 224 184 185 206 173 177 162 148 102 92 62 81 82 77 67 58 42 34 49 50 63 52 5 326 133 120 75 261 251 247 251 250 247 240 237 230 223 198 194 209 230 231 235 284 294 291
330 322 317 313 326 326 316 334 327 311 313 309 304 290 270 267 268 244 242 244 244 235 216 221 220 217 203 198 193 194 164 169 174 185 217 240 243 280 299 280 48 207 188 211 200 192 121 119 114 83 82 81 77 74 65 59 54 68 64 75 46 32 15 335 224 207 228 236 255 267 276 284 292 302 303 296 299 287 254 233 232 280 306 310 305
309 306 310 309 302 297 293 291 289 290 295 302 298 287 282 272 260 256 252 246 248 246 224 223 226 221 218 215 206 198 176 165 167 181 202 240 264 284 291 304 82 284 223 213 206 115 105 105 100 98 92 86 79 77 82 87 78 85 91 63 58 10 287 259 271 292 279 283 300 299 295 286 277 281 301 319 330 348 346 330 324 316 300 280 272
306 305 296 291 290 286 284 278 274 273 272 275 278 282 277 274 267 254 246 244 245 240 233 227 226 225 218 213 213 202 188 178 154 166 172 180 77 291 334 19 35 347 311 204 149 118 128 128 127 126 106 99 87 75 64 61 88 111 107 144 252 276 261 257 240 247 268 279 277 273 276 300 317 312 312 318 319 316 315 319 285 265 271 290 301
300 293 290 284 281 279 276 277 276 277 275 264 260 261 263 260 260 257 253 248 248 246 241 248 243 234 225 217 211 206 188 185 169 148 144 145 135 71 38 43 27 2 301 132 110 112 108 116 128 128 119 111 108 103 95 100 123 160 212 221 257 244 235 271 310 308 290 282 284 301 308 312 316 323 339 337 335 316 287 280 311 335 327 308 304
289 289 287 287 287 284 279 276 271 266 263 261 258 257 259 259 258 256 252 250 248 247 244 232 243 244 242 230 228 210 202 192 173 159 155 146 129 84 76 72 69 57 61 83 99 112 121 129 130 126 125 131 143 147 140 149 184 200 217 233 239 246 300 324 305 289 284 294 304 299 298 316 324 344 332 295 277 289 313 313 308 308 312 305 301
281 278 277 275 273 270 269 266 267 263 257 255 253 252 250 249 249 249 255 254 247 249 263 255 235 243 226 231 229 178 310 255 171 137 187 166 157 137 125 104 108 102 95 103 106 110 124 135 142 145 123 146 102 102 123 148 175 211 211 216 224 319 38 0 338 301 286 280 280 293 317 312 307 297 296 313 310 307 309 310 305 297 300 300 297
284 280 280 282 279 277 274 273 271 266 268 269 272 267 262 259 253 250 248 250 254 249 243 235 232 242 261 252 254 227 197 202 200 182 177 182 172 163 164 153 158 148 129 129 129 132 135 127 134 144 143 152 152 173 173 181 191 194 204 198 196 148 100 67 271 253 260 307 323 326 316 319 313 320 318 313 313 309 308 303 302 300 298 299 296
289 284 281 278 275 271 272 274 271 270 272 269 261 260 259 258 256 254 250 265 286 285 275 251 252 204 211 247 285 308 267 229 201 171 171 173 166 171 174 180 183 176 149 136 132 140 145 158 167 167 173 184 181 191 181 180 157 131 128 298 285 220 193 204 228 292 5 346 323 322 311 309 315 315 312 308 307 310 311 310 308 303 301 295 291
280 279 276 274 278 279 273 266 262 265 268 264 265 263 264 275 290 294 282 42 36 58 61 11 16 343 333 292 108 205 219 231 161 155 157 158 177 197 182 182 193 155 133 143 148 153 168 174 174 179 183 184 189 187 173 165 171 184 143 117 252 48 13 308 289 7 -0 310 294 292 308 319 307 307 305 308 309 308 312 311 301 298 295 290 288
295 285 275 269 276 277 276 280 293 296 286 273 264 265 262 243 221 235 261 275 300 308 304 308 52 68 356 305 23 51 27 71 210 170 149 174 194 206 179 168 133 131 140 146 167 167 172 180 181 187 183 180 187 176 153 166 183 197 158 129 173 144 202 276 11 345 303 288 294 301 312 310 308 305 302 303 303 302 299 294 292 292 291 292 290
295 297 301 302 304 300 304 309 292 265 256 274 278 275 273 272 268 206 211 235 244 230 225 259 271 232 157 219 321 29 357 3 127 193 189 168 163 155 141 138 142 142 153 166 168 180 181 185 183 181 176 177 166 131 153 163 137 206 204 203 167 121 321 285 47 320 304 304 320 323 318 308 302 303 301 300 299 296 296 299 298 297 295 293 292
290 291 291 290 292 295 293 285 282 287 285 272 271 274 270 269 265 270 213 162 52 347 325 297 266 243 205 158 139 112 98 30 20 81 133 136 137 136 136 141 143 148 152 183 190 183 188 184 178 168 165 166 140 158 163 150 153 139 201 342 304 109 303 52 228 242 290 318 306 308 317 314 306 302 301 298 297 298 302 300 299 298 298 297 296
291 289 292 297 304 304 290 284 287 292 292 291 283 278 274 274 278 275 271 240 198 233 231 231 240 243 234 163 141 146 124 108 85 62 44 87 118 125 126 136 145 158 175 191 197 189 183 177 163 153 163 149 153 149 151 158 140 163 145 206 275 352 24 341 325 354 324 313 313 322 319 316 316 308 302 301 301 302 301 302 301 299 297 299 301
294 288 273 265 276 283 281 283 286 286 288 284 278 275 271 273 276 284 285 289 273 247 229 219 210 211 211 176 149 145 132 123 118 105 91 85 107 115 110 115 130 177 256 229 196 196 183 161 151 149 150 152 153 153 155 151 153 159 182 157 309 18 347 333 339 353 342 318 314 324 327 317 307 301 302 304 305 304 302 300 300 298 300 300 300
300 296 299 283 280 289 292 292 288 283 277 276 285 305 310 305 291 281 279 276 279 281 271 262 185 157 222 202 168 153 140 134 133 129 132 132 149 133 126 135 161 176 195 245 210 185 171 181 173 191 159 160 149 150 151 142 157 189 122 65 161 296 319 352 351 6 339 292 295 313 314 314 314 310 306 301 298 300 304 305 304 304 299 295 293
309 313 313 319 319 318 308 298 290 289 296 302 297 289 283 285 291 288 275 276 285 282 271 255 116 130 118 116 123 129 129 128 132 135 146 150 150 135 145 158 149 144 108 29 85 125 176 194 192 181 152 153 157 152 147 160 156 117 108 264 8 266 267 354 337 331 325 309 325 337 332 319 319 309 311 310 311 310 310 311 308 301 293 286 279
313 316 326 333 327 311 302 299 299 305 292 279 277 270 266 261 267 277 272 264 276 295 307 289 241 201 176 150 144 140 121 114 112 109 129 148 167 180 148 145 183 168 177 178 174 167 176 175 185 174 153 153 155 145 140 144 147 138 140 141 261 233 104 276 211 220 231 265 327 332 331 333 331 326 323 319 317 316 314 311 310 311 311 307 308
325 342 151 294 304 315 307 301 298 294 291 287 281 277 261 249 240 245 255 242 251 270 279 284 269 237 178 142 143 132 134 143 155 156 164 173 182 177 170 180 171 158 167 170 167 162 176 167 179 161 157 142 128 125 139 138 120 105 58 268 267 315 191 317 356 339 338 353 326 333 338 340 334 330 328 322 319 320 320 325 323 315 310 306 303
337 334 11 347 338 340 322 326 314 309 313 312 303 288 270 242 227 226 234 244 236 247 272 278 274 259 157 145 146 160 169 165 164 160 163 165 179 178 169 164 174 163 153 153 171 172 155 171 166 156 131 129 131 116 106 111 148 155 211 315 347 328 346 326 348 345 353 339 329 337 338 339 335 334 331 331 336 336 325 312 304 296 292 299 306
355 346 346 5 24 343 355 347 336 339 327 325 316 311 292 255 242 224 225 225 237 246 261 263 271 327 97 138 149 168 164 159 154 156 163 168 165 167 169 166 164 161 159 158 167 161 167 165 151 127 132 121 120 120 112 92 90 263 54 9 0 9 337 342 339 8 353 321 334 337 338 342 344 341 337 332 324 313 313 308 306 310 312 308 302
4 358 359 358 360 3 356 3 355 352 345 345 343 341 341 284 238 224 220 231 241 261 259 270 293 100 61 72 116 297 257 150 151 152 155 161 158 162 161 165 163 153 147 149 153 157 154 140 137 132 118 141 127 110 137 124 75 26 45 33 25 9 351 345 4 12 332 327 334 354 348 332 334 336 332 327 323 321 314 317 317 308 302 304 308
25 15 11 11 14 18 11 6 3 4 9 9 10 2 356 352 46 0 320 293 294 292 291 278 114 86 78 54 45 14 176 129 122 125 130 143 149 155 113 96 102 120 135 144 151 147 144 145 142 131 115 67 51 55 72 72 48 37 51 37 36 27 357 359 351 351 345 341 343 336 316 328 341 340 334 327 326 324 325 315 302 303 314 317 315
26 28 20 29 25 32 29 22 18 15 15 11 20 26 31 45 57 69 63 8 301 232 193 130 101 101 100 83 74 76 98 104 106 102 100 95 84 78 78 96 113 124 127 124 124 127 137 157 126 83 83 91 78 41 57 64 59 57 46 34 43 29 10 11 353 350 348 339 325 316 325 333 339 337 337 332 329 323 312 299 299 318 317 311 313
28 35 31 29 30 29 28 27 31 34 36 31 27 24 23 42 53 51 47 49 42 41 59 87 99 106 114 112 106 107 113 111 105 105 98 93 88 82 82 84 83 82 90 85 72 90 123 80 90 106 118 108 106 90 74 62 52 49 49 38 25 22 18 8 358 355 343 330 321 320 325 335 339 337 336 331 321 311 306 313 318 310 312 322 323
28 33 37 33 36 36 37 37 40 43 44 49 55 53 45 34 30 36 60 67 56 67 87 105 104 103 110 112 106 92 103 114 113 106 100 96 97 97 95 89 82 76 74 64 41 20 51 100 119 122 99 82 67 82 100 97 88 78 53 58 41 31 18 15 2 343 331 326 323 320 318 320 328 334 321 315 314 303 295 299 312 332 333 328 325
29 35 30 34 32 36 41 47 42 48 50 50 53 60 68 70 65 50 34 57 80 48 33 67 67 59 64 62 66 70 88 96 85 80 72 74 77 85 89 87 77 72 68 85 96 79 65 69 77 73 70 81 84 49 48 62 61 62 49 53 54 37 29 359 341 330 322 320 316 313 319 317 311 314 321 315 307 296 303 322 341 338 335 327 321
41 37 34 32 31 37 40 39 45 52 54 54 57 60 62 62 64 61 62 67 79 84 78 77 81 82 88 92 91 90 83 74 69 73 74 74 70 69 76 96 105 99 101 106 103 90 86 80 86 90 94 76 70 74 63 55 62 51 43 64 52 27 1 350 331 324 327 329 315 303 296 296 303 308 310 299 292 307 328 343 340 338 327 321 313
38 38 37 34 34 38 37 43 44 44 48 52 58 59 58 56 54 55 57 59 61 65 71 79 80 80 77 79 83 85 77 74 72 74 77 79 77 79 79 90 93 100 95 79 78 74 78 63 61 67 68 75 69 78 85 62 49 57 43 44 26 7 353 347 335 327 322 311 301 298 290 288 290 301 302 291 301 328 338 336 331 321 311 303 311
35 58 33 37 47 46 50 49 47 51 49 50 52 55 59 63 63 64 62 61 61 63 66 68 70 73 78 80 78 77 71 76 79 84 85 91 86 85 82 89 108 116 121 125 122 124 113 105 88 73 65 65 64 58 66 69 55 42 31 16 1 353 349 341 332 332 329 325 312 301 297 289 286 282 305 324 331 328 334 331 317 314 314 316 341
354 8 60 55 41 50 52 55 57 55 53 54 58 57 52 52 59 67 74 77 78 79 81 80 83 85 87 85 82 77 76 79 80 82 83 84 95 103 105 99 81 69 74 87 94 91 97 106 94 80 76 67 53 52 58 61 57 34 9 356 356 353 345 341 334 328 323 313 303 285 274 275 280 312 329 328 326 332 328 318 321 321 332 345 350